sat.trackr.live / text

‹ back to catalog

STARLINK-30384

NORAD 57774 · 2023-134D

PAYLOAD ACTIVE UNKNOWN

§ Identity

Operator
Country
US
Launch date
2023-09-04
Launch site
AFETR
Launch vehicle
Mass (kg)
RCS (m²)

Purposes: comms

External: N2YO · Heavens-Above · Gunter

§ Orbital elements

Epoch: 2026-09-20T02:34:00.516288Z

Period
94.27 min
Inclination
43.0009°
Eccentricity
0.0001271
Mean motion
15.27578175 rev/d
Perigee alt
482.2 km
Apogee alt
483.9 km
Semi-major
6,861.2 km
B*
6.0404e-5
RAAN
179.6640°
Arg perigee
271.2554°
Mean anomaly
88.8152°
Rev number
16,920

§ Raw data

STARLINK-303841 57774U 23134D   26263.10695042  .00001400  00000+0  60404-4 0  99912 57774  43.0009 179.6640 0001271 271.2554  88.8152 15.27578175169206

JSON: /api/v1/satellites/57774 · /tle

For live sub-satellite position, see the globe view (requires WebGL).

§ Visibility from observer

Set your observer location to see the next 7 days of passes ≥ 10°. The values pass through the URL so the page stays shareable.

No JS? Fill the form by hand. The geolocation button needs JavaScript.